Theta_e
346 350 354 356 356 358 357 358 356 354 357 348 345 341 343 346 347 347 349 350 350 349 349 348 348 351 351 351 351 353 354 353 352 350 350 351 351 350 350 348 348 347 347 348 348 347 347 346 345 345 344 344 343 344 344 343 342 342 342 340 339 338 339 339 338 338 338 338 337 338 340 339 336 335 336 337 337 338 338 338 340 339 338 337 337 338 338 337 336 338 339 339 340 339 339 339 341
346 352 357 357 357 357 355 358 356 352 351 344 345 345 344 348 347 346 349 349 349 349 349 348 349 349 349 350 351 353 354 353 352 352 350 350 351 351 351 349 348 347 348 348 348 347 347 346 345 345 344 344 343 343 344 343 342 342 342 341 339 336 336 337 337 337 337 337 338 339 339 339 336 334 334 335 337 338 337 338 339 337 336 335 336 339 338 336 336 337 338 339 340 339 338 339 340
349 354 358 357 358 355 354 356 354 347 344 344 345 344 347 347 347 348 348 348 349 349 350 349 348 349 349 350 351 353 353 352 351 350 350 351 352 352 351 351 349 347 347 348 348 347 346 346 345 344 344 344 343 343 343 342 342 341 341 341 338 335 333 334 335 335 337 337 337 339 340 338 336 334 333 334 335 336 335 336 336 335 335 334 334 336 336 336 336 337 338 338 340 340 339 339 340
354 356 358 357 356 354 354 355 356 348 342 348 346 343 350 345 347 347 346 348 348 350 350 350 349 349 349 350 351 352 352 352 351 351 351 351 352 352 351 351 349 347 347 347 347 347 346 346 345 343 343 343 343 343 343 342 341 341 340 339 337 335 333 333 334 335 336 336 336 338 339 336 335 335 333 333 334 334 333 333 334 334 334 335 334 335 336 336 337 338 338 338 339 340 341 340 339
356 356 357 356 355 354 355 354 355 349 343 352 348 344 348 343 345 344 347 349 347 350 350 351 350 350 350 350 351 351 352 351 351 351 351 351 352 353 351 350 348 346 346 347 347 346 346 346 345 344 343 343 343 343 343 342 340 340 340 339 337 336 335 335 337 338 338 337 336 338 339 337 336 335 333 333 334 333 332 333 334 333 334 334 334 335 336 337 337 337 338 338 339 339 341 341 339
358 357 355 354 354 354 354 351 348 344 344 350 348 348 346 343 345 345 347 347 346 349 350 352 351 352 351 352 352 351 351 351 351 351 352 352 351 351 351 350 349 346 345 348 347 345 345 345 345 344 344 343 343 343 342 342 341 340 340 340 340 339 339 339 340 340 339 338 338 339 338 336 336 334 332 333 333 333 333 334 333 333 334 333 334 336 337 337 337 337 337 339 339 339 340 341 340
358 356 355 354 354 352 353 351 346 339 342 347 347 349 345 345 347 346 346 345 347 347 349 351 351 352 351 352 353 351 351 350 352 352 351 351 349 348 349 351 350 347 345 347 347 345 344 345 344 344 345 344 343 343 342 342 342 342 342 342 341 340 341 341 341 341 340 340 340 339 336 335 336 333 332 333 333 334 334 334 331 332 334 333 337 338 337 338 339 339 338 340 340 341 341 340 340
356 355 356 356 355 352 351 350 343 335 342 345 347 348 345 347 348 345 345 344 346 347 348 349 349 351 350 352 353 353 352 350 351 352 352 350 350 349 350 352 351 350 348 346 345 344 344 345 345 344 345 345 344 344 343 342 342 342 342 341 341 341 342 343 342 341 340 339 338 336 335 335 335 333 332 333 333 334 334 332 331 333 334 335 339 339 337 338 339 339 339 340 340 339 339 339 340
353 354 355 354 353 351 347 344 337 338 342 342 345 345 346 347 348 347 345 345 345 346 348 348 349 351 352 353 353 353 352 351 352 352 352 351 352 352 352 353 352 352 350 346 344 343 344 344 344 344 345 345 343 344 343 342 343 343 343 342 342 342 342 342 342 341 340 339 337 336 336 335 334 333 331 332 332 333 334 333 332 334 335 335 339 338 337 337 337 337 337 338 337 337 336 338 339
353 354 354 353 352 347 342 337 332 339 341 342 344 344 347 348 349 347 345 344 344 346 348 349 350 353 354 355 354 354 351 350 352 351 352 352 353 352 352 352 352 352 350 346 344 343 343 342 343 343 344 345 343 343 343 343 343 343 343 343 342 342 341 342 342 341 340 340 339 338 337 336 335 334 331 331 333 333 333 334 334 335 336 337 339 338 336 337 337 334 335 336 335 335 335 337 339
357 355 353 352 348 342 335 331 333 338 341 341 344 345 347 347 349 347 344 345 346 349 349 349 351 353 355 355 354 353 351 350 351 351 353 353 353 352 353 352 352 351 348 343 343 343 343 342 341 341 343 344 343 343 343 342 342 342 342 344 343 342 342 342 343 341 341 340 339 338 335 335 335 333 330 331 333 332 334 335 335 336 338 339 340 339 338 338 338 335 333 333 333 336 337 337 340
358 354 350 350 347 343 333 330 334 337 341 340 341 345 346 346 346 345 345 345 347 349 349 350 350 353 355 355 353 351 351 350 351 351 353 354 353 353 352 353 352 352 349 344 342 343 342 342 342 342 342 342 342 342 343 342 341 342 341 343 343 342 341 342 341 340 340 339 337 335 332 331 330 330 329 330 332 333 335 336 335 336 339 339 340 340 340 340 341 337 332 332 333 333 336 338 341
354 350 348 348 348 347 340 331 335 337 339 339 341 343 343 346 346 344 344 343 345 348 349 350 350 353 354 354 353 351 351 351 352 352 353 353 352 352 351 353 352 352 350 346 342 342 341 341 342 342 341 341 342 342 341 342 341 342 342 342 341 340 340 340 340 340 339 339 336 333 331 330 330 331 330 330 332 334 335 334 335 338 339 339 340 341 342 341 341 339 333 333 334 332 334 338 339
352 352 349 350 348 347 343 332 335 335 334 337 338 340 342 345 346 345 344 342 345 349 349 350 350 352 353 353 352 351 351 351 353 352 353 353 352 352 351 352 353 352 351 347 343 342 342 342 341 341 341 342 343 342 341 342 342 342 341 340 339 340 341 340 340 339 338 337 335 334 333 332 333 333 332 333 335 335 334 334 337 339 339 339 341 343 343 342 340 338 334 333 335 333 336 338 338
352 353 349 348 345 343 340 335 336 334 333 336 337 341 342 342 344 344 343 343 347 349 349 349 350 351 351 352 351 351 352 352 353 352 353 353 353 353 352 352 352 353 352 349 345 343 344 342 342 341 342 344 343 342 342 342 342 341 340 339 339 341 341 340 339 339 337 336 335 334 334 334 335 335 334 336 336 334 334 336 338 339 339 340 342 344 344 342 340 337 335 334 334 336 338 339 338
349 354 354 346 342 339 336 338 337 334 334 337 337 339 340 339 342 343 344 344 346 349 349 350 350 350 349 351 352 352 352 352 354 354 354 354 353 353 352 353 354 353 352 351 347 346 347 346 345 343 343 346 345 344 344 342 341 341 340 340 340 341 341 340 339 338 336 335 335 336 336 336 336 337 336 336 336 335 336 338 338 338 339 341 344 345 343 341 340 337 335 335 335 336 338 339 339
346 354 356 346 342 339 336 340 338 336 337 337 337 337 337 340 341 342 343 342 344 346 348 349 349 349 348 350 352 352 352 352 354 354 354 354 354 353 352 353 354 354 353 352 351 350 351 350 346 343 345 346 345 346 344 342 341 340 340 340 341 342 341 339 339 338 337 337 337 338 338 338 340 340 339 338 339 339 340 340 339 339 340 342 344 345 343 340 339 337 335 335 334 336 339 341 341
347 350 348 341 342 340 337 341 339 339 338 337 339 337 339 340 341 341 342 341 342 345 346 347 347 348 348 351 352 352 353 353 354 354 355 354 354 354 353 352 353 353 352 352 352 352 353 350 346 344 346 347 347 347 345 344 341 340 341 340 341 341 339 339 340 339 338 339 339 339 339 340 342 343 342 342 342 342 342 340 339 340 341 341 344 344 343 340 338 336 335 335 335 337 341 343 343
347 346 344 341 342 340 340 342 340 340 339 338 340 339 338 338 338 339 341 340 341 344 345 345 347 348 348 350 352 351 353 353 354 354 355 354 354 355 354 353 353 353 352 351 350 352 352 349 346 345 346 347 349 349 347 347 343 342 344 341 341 340 338 340 340 339 340 342 341 339 341 343 344 343 343 343 343 342 340 340 340 340 341 342 343 343 343 340 339 338 339 339 338 340 341 342 345
345 344 344 342 342 342 342 341 341 342 340 341 341 339 338 338 336 338 341 338 340 344 343 345 347 350 349 350 352 352 353 353 353 355 355 354 354 355 355 355 354 354 353 352 351 351 350 349 349 348 346 348 350 350 349 348 343 343 345 342 342 339 339 341 341 341 341 343 344 341 343 344 343 343 342 342 342 341 341 343 344 342 342 343 343 344 345 344 342 342 343 343 343 343 344 344 346
343 344 343 343 343 342 343 341 341 343 342 342 341 341 337 336 336 338 341 338 339 343 342 345 349 350 350 350 352 351 352 354 354 354 354 353 354 354 355 355 354 354 354 353 352 352 350 350 351 349 346 347 348 349 350 348 342 343 346 343 342 340 341 341 340 342 341 343 345 342 343 342 342 342 343 344 342 342 345 346 346 345 344 342 342 345 347 347 345 345 346 345 346 346 347 348 347
341 342 344 344 343 341 343 341 341 341 342 343 341 340 337 337 336 338 339 338 339 342 342 345 349 350 352 351 351 351 352 354 353 353 353 353 352 353 354 353 354 353 353 354 352 350 351 350 350 348 346 347 349 349 350 349 344 346 348 345 344 344 344 344 343 344 342 344 343 342 344 344 345 346 344 345 344 345 347 346 346 346 346 343 343 344 347 348 347 347 348 348 349 348 347 348 347
339 342 343 343 342 342 342 341 340 342 342 343 341 340 337 337 337 337 340 338 340 341 342 345 348 350 352 352 351 352 352 353 353 353 352 352 351 353 353 352 353 352 352 353 351 350 350 350 349 347 346 346 347 348 348 347 345 348 349 346 346 348 350 349 349 349 346 346 344 344 347 348 349 350 348 347 347 347 347 347 346 346 346 345 346 346 346 349 348 347 349 348 349 348 348 347 348
338 340 343 343 342 343 344 341 340 340 341 344 342 342 339 337 337 338 339 338 339 339 341 345 347 350 351 351 351 351 352 352 351 351 351 351 351 352 353 351 352 351 351 351 351 351 349 349 348 344 344 344 344 346 347 347 346 349 350 348 348 350 351 351 351 352 349 349 346 345 349 351 350 350 350 349 349 348 348 347 345 346 347 345 347 347 346 348 348 348 349 349 348 348 348 347 348
337 337 341 344 343 343 342 339 339 340 342 343 344 343 341 340 339 338 338 337 339 339 342 345 347 349 350 350 350 350 350 350 350 349 350 350 350 352 351 352 352 351 351 351 351 352 351 351 346 340 343 343 342 345 347 346 345 349 352 350 349 351 352 352 351 352 351 350 349 347 347 348 350 350 350 349 348 349 349 347 346 348 347 345 346 345 346 347 347 348 349 349 349 346 346 347 347
335 335 339 342 342 342 341 339 339 339 341 343 343 343 342 341 340 339 337 336 338 340 342 345 346 348 350 350 349 350 350 349 350 350 349 348 350 351 352 352 352 352 352 352 351 352 352 353 348 342 344 345 344 346 346 347 346 350 353 350 350 351 351 352 351 351 352 351 351 350 345 343 347 349 349 348 346 347 347 346 348 349 348 347 346 344 345 346 346 346 347 348 348 345 347 347 345
335 336 337 340 340 341 339 339 339 339 340 343 343 341 342 342 340 339 338 337 337 340 342 345 347 347 349 348 348 351 350 350 351 351 350 349 349 351 352 352 353 352 352 352 352 352 351 352 351 350 349 346 345 347 349 350 350 350 352 352 351 348 347 350 352 352 352 352 352 351 347 342 342 344 345 344 343 344 345 347 349 349 349 349 346 343 343 344 344 343 345 346 345 344 345 345 341
335 336 337 338 339 340 341 339 337 338 339 342 343 342 343 342 339 340 340 337 338 341 342 344 345 347 349 348 349 351 351 350 351 352 351 350 350 351 352 352 353 353 353 353 352 352 351 351 351 352 352 348 346 349 351 352 352 351 350 349 349 346 343 345 350 351 352 352 352 350 348 344 342 342 342 341 341 343 343 345 349 348 347 347 344 342 342 343 342 342 344 345 345 343 343 344 340
334 336 336 337 339 339 339 338 337 338 339 343 343 340 341 343 338 341 342 337 337 341 342 344 345 347 349 348 349 351 350 350 351 352 352 352 351 352 353 353 354 354 354 354 353 353 352 352 352 351 352 349 345 350 352 351 351 348 347 346 347 349 345 340 345 351 352 351 349 346 345 345 345 344 343 341 340 341 341 343 349 349 347 347 346 344 343 345 343 343 345 345 345 344 344 343 341
334 333 334 335 336 337 338 337 338 338 339 341 341 335 338 342 340 342 342 337 339 341 341 343 344 346 348 348 350 351 350 350 351 351 352 353 352 352 354 354 354 354 355 354 354 354 353 352 352 352 352 348 342 347 352 352 348 346 347 346 348 352 350 345 347 351 352 352 349 345 344 345 344 344 343 342 341 341 341 343 347 347 346 345 344 341 342 344 344 345 346 346 345 343 344 343 342
333 332 332 333 330 331 338 338 337 339 338 342 340 332 337 342 341 343 343 339 339 341 342 343 345 345 347 348 351 351 350 350 350 350 351 353 353 352 354 355 355 355 355 355 354 353 353 353 352 353 353 350 342 343 351 352 349 346 348 350 351 353 352 350 351 351 351 351 350 347 346 345 344 344 344 342 342 342 342 344 347 346 345 343 338 339 343 344 344 346 347 346 345 344 344 341 342
333 329 326 330 328 330 339 338 337 339 337 341 339 333 338 343 342 344 345 341 339 340 341 343 345 345 345 348 351 351 351 351 350 351 351 352 351 351 353 354 355 355 354 355 354 353 353 352 353 353 353 351 345 341 346 349 348 346 349 352 353 353 351 350 351 352 353 351 351 350 348 348 346 344 343 343 343 343 343 344 345 345 345 342 338 341 344 344 345 346 346 345 345 343 339 338 342
332 329 323 327 328 329 335 338 337 338 339 341 338 336 340 342 343 343 344 342 339 341 341 341 343 344 345 349 351 351 351 351 351 351 352 351 351 351 352 354 355 355 355 354 354 353 354 354 353 354 354 352 349 345 343 343 344 345 348 352 353 352 351 351 350 349 351 353 353 352 349 349 348 345 344 344 343 342 341 342 344 345 344 342 341 342 344 345 345 346 346 345 345 339 332 335 340
327 329 326 327 329 328 331 336 337 338 339 340 339 340 341 342 343 343 344 343 341 341 342 340 341 342 344 348 351 351 351 351 351 352 351 351 352 351 352 353 355 355 354 355 355 353 353 354 353 354 355 353 350 348 345 342 342 345 347 350 351 351 351 352 352 350 352 353 352 352 351 349 347 346 344 343 340 337 336 338 343 345 343 342 341 342 344 346 346 346 346 345 340 330 328 335 337
324 326 325 326 330 330 330 334 338 337 339 341 340 340 342 342 341 343 343 343 343 342 341 340 341 342 343 347 350 351 352 352 351 352 352 351 352 352 352 352 354 354 354 355 355 354 353 354 354 352 354 355 354 351 348 345 343 344 347 350 350 348 347 349 350 351 354 353 352 352 352 351 346 345 344 342 338 334 334 337 342 345 343 343 343 343 345 346 347 346 345 342 330 324 331 337 337
328 329 329 326 327 330 333 336 337 338 339 341 340 340 343 342 342 345 344 343 343 343 343 342 340 341 342 345 347 348 351 351 351 352 352 352 352 352 352 353 353 353 354 354 354 354 353 352 353 352 352 355 356 354 351 347 345 345 348 350 349 345 341 344 345 348 353 353 353 352 350 348 344 343 344 342 339 336 338 341 343 346 344 344 345 344 345 347 345 343 341 334 325 326 335 339 338
331 332 331 330 329 328 336 338 338 338 337 338 341 341 343 343 342 345 345 345 344 343 345 344 342 342 342 344 345 346 351 352 352 351 352 353 353 353 353 352 354 354 354 354 353 353 353 352 352 352 350 352 355 356 353 349 347 348 348 349 350 347 342 343 344 347 352 353 351 349 346 342 340 342 342 340 340 339 341 342 343 345 344 345 346 344 347 346 343 342 337 329 329 332 336 337 338
331 331 330 330 329 330 337 337 337 338 336 337 340 341 343 345 344 345 345 344 344 344 345 345 344 344 342 345 345 347 350 352 353 352 352 353 353 354 354 353 353 354 354 354 353 353 353 353 353 353 351 349 351 355 354 350 349 349 349 349 351 352 350 347 345 348 353 352 350 349 347 341 338 340 341 340 341 340 341 342 342 344 345 346 346 345 346 343 341 340 332 330 335 337 336 336 336
332 331 329 326 329 332 334 336 337 337 335 336 339 338 340 345 344 343 345 344 345 345 346 346 345 345 344 344 345 346 348 351 353 353 353 354 355 354 355 354 353 354 354 353 353 354 353 354 355 356 354 348 346 352 354 353 351 349 349 351 351 353 353 350 348 350 352 351 349 349 348 343 340 340 341 342 343 343 343 344 344 345 345 345 345 345 344 342 342 336 330 334 337 337 338 338 336
331 331 326 324 330 330 328 333 338 338 336 336 338 338 339 344 344 344 345 345 345 345 345 346 345 345 345 345 346 346 347 349 352 354 354 353 355 355 355 355 354 353 354 354 354 354 354 355 354 353 354 349 342 345 350 352 353 350 349 351 352 353 352 351 351 350 351 352 351 351 348 346 344 343 343 343 345 346 345 345 346 345 345 346 346 343 342 342 342 337 335 338 336 337 341 341 339
330 330 328 326 330 331 330 334 337 337 337 337 337 333 334 341 344 345 346 346 345 345 345 346 346 346 345 346 346 347 347 347 350 353 354 355 354 356 356 355 356 355 355 355 355 355 354 354 353 351 352 350 342 339 344 349 351 351 351 352 353 353 352 351 350 350 351 352 352 352 350 348 347 345 345 345 348 347 346 346 345 345 347 347 345 343 343 342 339 338 339 338 334 335 339 341 341
327 330 331 330 332 334 335 336 335 330 330 336 336 326 328 338 342 344 346 345 345 346 345 345 346 346 345 346 346 347 348 347 348 351 353 354 354 356 356 356 356 356 355 355 355 357 355 355 354 352 350 349 344 341 341 346 348 348 351 353 352 352 352 352 351 351 352 351 351 351 351 351 349 348 347 347 349 349 347 346 344 346 347 345 344 342 342 340 337 339 341 339 337 336 336 338 339
323 328 332 332 334 333 334 334 330 325 325 336 337 328 326 333 338 343 346 346 346 345 347 346 346 346 346 345 346 346 348 348 348 350 352 353 354 356 356 356 357 357 356 356 357 357 357 356 356 352 349 346 346 345 343 343 344 344 349 353 352 351 351 351 351 352 352 350 350 351 352 351 349 349 350 349 349 348 347 344 344 346 346 344 343 339 336 339 341 341 340 339 336 335 335 336 338
323 330 332 332 332 331 333 334 330 328 329 335 338 333 327 328 336 345 347 345 346 345 346 347 346 347 345 345 346 347 349 349 349 350 351 352 354 355 356 356 357 357 356 357 357 357 357 358 357 354 349 345 347 348 345 342 342 343 347 351 353 352 351 351 353 353 352 349 349 351 350 350 348 349 350 350 350 349 347 346 345 346 345 345 343 338 337 341 341 339 338 337 333 332 333 334 337
328 332 333 331 333 332 333 332 329 330 330 326 330 334 329 326 335 344 346 345 346 347 346 346 348 349 347 345 346 347 347 348 349 350 350 351 354 355 355 357 357 357 357 356 357 357 357 358 358 356 353 347 348 350 347 344 342 343 346 349 352 352 351 353 354 353 350 348 350 349 349 351 349 349 351 351 350 348 348 346 343 343 344 344 341 339 341 341 340 338 334 333 335 335 334 332 334
330 332 332 332 333 333 333 331 327 328 327 322 326 330 327 326 332 339 341 342 345 347 346 347 349 349 347 347 346 346 346 347 349 350 351 351 354 355 355 356 358 357 356 356 356 357 358 358 358 358 355 350 349 351 350 348 345 346 346 347 349 350 350 352 354 352 350 349 349 348 350 351 349 348 349 348 347 347 346 343 341 342 342 342 340 340 342 340 339 337 331 333 338 338 335 333 333
331 331 331 330 332 333 332 331 328 325 323 323 325 328 328 326 330 335 339 341 344 345 345 346 348 346 346 347 347 347 348 349 349 349 350 351 353 355 356 355 357 357 355 354 355 357 358 359 359 359 358 353 350 352 352 352 350 349 348 345 346 348 348 350 352 351 350 350 349 349 351 350 348 347 346 343 343 346 346 342 342 343 342 340 339 338 340 339 338 336 333 334 334 332 334 336 335
330 331 329 326 326 327 325 326 326 322 320 323 325 328 328 324 328 336 341 343 344 343 345 345 345 344 345 349 351 349 348 349 350 349 349 351 353 355 355 354 354 355 354 354 355 357 358 359 360 360 359 356 353 353 352 353 353 353 350 345 345 348 348 350 351 351 350 350 350 352 352 350 348 348 348 347 345 345 344 342 343 343 342 340 337 336 338 337 337 339 336 332 329 327 329 334 336
329 328 326 320 319 321 321 320 322 320 320 324 327 327 325 325 332 339 341 342 342 342 343 343 344 345 345 349 350 349 350 351 352 352 350 350 353 353 353 354 353 353 354 354 356 357 358 359 359 360 360 357 354 353 353 353 355 355 350 347 346 349 350 351 351 350 350 350 350 352 352 350 348 348 350 349 346 344 343 344 343 342 341 338 335 337 339 336 334 339 338 333 332 330 326 327 332
326 325 322 319 318 319 319 320 320 320 320 324 328 327 323 324 333 340 340 340 341 342 342 343 344 345 346 348 347 348 351 351 351 351 351 350 351 352 353 353 353 353 354 355 356 357 358 358 359 359 359 358 355 353 353 354 356 356 351 348 347 349 350 351 351 351 352 352 351 351 352 350 345 344 347 346 344 344 343 344 343 339 337 333 330 333 336 332 330 336 336 334 335 335 331 331 332
326 328 327 322 319 319 319 319 319 318 319 322 326 325 321 322 332 340 339 340 342 341 342 342 343 346 346 346 346 348 349 349 349 350 350 350 349 350 351 352 355 356 356 357 356 357 358 358 358 359 359 359 357 354 353 353 355 356 354 350 346 346 348 349 351 353 354 352 349 349 350 349 343 342 344 342 343 345 343 343 341 336 332 329 325 326 327 325 323 326 329 331 335 337 335 335 335
326 329 326 321 323 324 320 319 320 319 320 321 322 324 326 329 336 340 339 339 341 341 343 342 344 345 344 344 345 346 350 350 351 351 349 349 349 349 349 351 356 358 357 358 357 357 358 358 359 359 359 359 357 355 353 353 355 355 355 353 347 343 344 347 350 354 355 351 346 345 349 350 346 344 343 342 343 343 343 342 340 335 331 326 322 320 322 321 320 321 323 326 332 336 336 335 336
325 324 321 323 329 328 321 319 321 321 319 322 322 323 328 332 335 337 339 339 340 341 341 340 343 345 342 343 342 345 352 353 351 352 351 349 349 349 350 352 356 358 357 357 357 357 358 357 358 360 360 359 358 356 354 354 354 354 353 353 349 344 343 345 348 353 354 351 348 347 349 349 347 345 344 343 343 343 342 341 337 332 328 323 320 319 320 322 326 328 325 323 327 333 336 337 336
323 320 322 326 328 328 324 320 320 319 318 321 322 321 323 324 328 335 339 338 340 340 340 340 342 343 343 342 341 348 352 350 349 349 350 350 350 350 353 355 357 356 355 355 357 357 357 357 358 359 359 360 359 358 355 354 354 354 353 352 350 348 347 344 345 347 348 349 350 351 351 347 344 344 343 342 342 342 340 336 333 331 327 321 321 323 323 324 331 335 331 326 329 333 335 336 335
325 324 327 326 320 319 322 320 320 318 318 320 320 321 322 322 326 334 336 338 338 340 343 342 339 343 343 341 345 348 349 348 347 348 349 351 351 352 353 354 356 356 354 354 356 356 356 356 357 359 359 359 360 359 357 354 353 353 354 352 349 351 350 345 343 344 343 345 349 352 350 346 342 343 342 341 341 340 337 334 332 330 324 321 324 329 329 327 330 333 329 327 331 333 332 333 334
326 325 328 327 321 320 321 321 320 318 318 321 320 320 321 326 331 335 337 340 341 339 343 345 338 340 341 340 347 348 346 346 347 346 347 350 351 353 353 354 357 358 356 356 358 357 357 357 357 359 359 358 360 361 358 355 354 354 355 353 352 353 351 345 344 345 342 342 347 350 349 344 342 343 341 341 340 339 338 336 332 327 322 322 326 330 332 330 328 327 326 327 331 331 328 329 333
323 321 321 322 324 324 322 321 321 320 320 320 320 318 321 329 337 338 339 343 340 340 344 346 342 338 339 340 345 348 347 347 347 346 347 350 353 353 353 354 358 360 357 356 358 358 357 357 357 359 360 360 362 362 359 354 354 356 358 356 354 354 352 347 346 346 341 341 344 347 348 345 343 343 342 342 341 338 339 337 332 325 322 325 327 328 330 331 328 326 325 326 329 333 332 333 334
325 322 320 321 322 321 319 319 320 321 321 320 320 319 322 331 340 339 339 341 339 339 341 343 340 338 339 338 340 346 350 348 347 345 347 351 353 353 352 354 357 359 358 358 357 357 357 357 357 358 361 362 362 363 359 355 354 357 359 358 356 355 353 350 348 346 342 341 342 344 346 345 344 343 343 344 342 338 337 337 331 325 323 324 327 329 330 328 326 326 326 325 326 330 333 334 335
Wind_Speed
2 5 8 11 9 6 4 4 2 2 3 3 2 2 6 8 6 7 8 6 7 9 12 11 13 14 10 10 13 17 17 10 6 5 9 14 16 14 15 17 18 20 21 23 24 26 27 26 28 30 30 29 27 27 27 26 26 25 24 24 23 24 24 23 22 20 18 17 16 15 14 14 14 13 13 14 14 13 13 14 14 14 13 12 12 12 11 12 12 11 11 12 12 13 13 14 14
3 4 9 10 7 5 1 4 2 2 3 1 3 3 4 8 5 7 9 9 10 12 16 17 16 15 14 15 17 19 17 17 20 20 21 21 19 16 16 18 19 21 23 25 26 26 27 27 29 31 31 29 27 27 27 27 25 24 23 22 22 22 22 22 20 18 17 16 14 14 13 12 12 12 12 12 12 13 13 13 12 12 11 11 11 10 10 10 11 10 10 11 11 12 12 13 14
2 4 8 7 5 4 2 3 3 3 1 2 2 2 1 6 9 10 11 13 18 19 17 16 15 12 13 13 15 16 12 19 26 27 26 21 20 20 18 19 21 22 24 26 26 26 26 27 29 31 31 28 26 25 25 25 24 23 22 21 21 21 20 19 18 16 15 14 13 12 11 11 11 11 11 12 12 12 12 11 10 10 9 10 10 10 9 9 10 10 10 11 11 11 12 12 12
4 4 6 5 2 2 1 1 4 3 2 1 0 2 2 8 11 12 13 15 18 18 15 14 14 13 15 14 16 17 15 20 22 24 25 20 21 23 21 21 22 23 24 26 26 26 26 27 28 29 30 28 26 24 23 23 22 22 20 20 20 19 19 18 16 14 13 12 11 10 10 10 10 9 10 11 11 10 9 8 8 8 8 10 10 9 9 8 9 9 10 10 10 11 11 11 11
8 3 5 6 2 1 3 2 5 4 2 2 0 2 6 11 12 12 13 14 15 14 14 14 14 16 18 16 14 14 16 21 19 21 23 21 23 24 22 22 22 23 25 26 27 27 27 27 27 27 28 27 25 23 22 22 22 21 20 19 18 18 18 16 15 14 13 12 11 10 10 9 9 8 9 10 9 8 7 6 6 7 8 10 10 9 9 8 8 9 9 9 9 10 10 11 10
9 5 7 9 6 4 3 5 7 3 7 6 1 2 7 11 10 12 13 14 14 14 16 16 16 18 18 19 19 16 17 20 19 20 23 23 24 24 23 23 22 23 25 26 26 27 28 28 27 26 26 25 23 23 21 21 20 20 19 18 18 17 17 16 15 14 13 12 11 10 10 9 8 8 9 9 8 7 6 5 5 7 9 11 10 10 9 9 9 9 9 8 9 9 9 9 9
8 6 7 7 7 6 4 8 7 2 11 10 4 5 9 10 10 12 12 12 12 15 19 17 19 18 14 15 18 16 17 18 20 21 24 25 24 25 24 23 23 23 24 24 25 27 28 28 28 26 25 24 22 22 21 21 20 19 19 19 18 17 17 16 15 14 13 12 11 10 10 9 7 8 8 7 6 5 5 5 5 7 9 9 10 10 9 9 8 8 8 8 9 9 8 8 8
9 7 4 2 5 5 7 10 4 4 9 11 6 6 9 10 11 10 10 11 10 14 18 16 20 17 13 15 15 16 18 19 22 24 26 27 25 25 25 23 23 23 23 23 25 26 27 26 26 25 24 23 22 21 21 21 20 19 19 19 18 18 17 16 15 14 13 11 11 10 10 8 7 7 7 6 5 4 4 4 5 6 7 8 9 9 8 9 8 7 7 8 9 8 8 8 8
11 6 2 2 5 6 9 7 2 5 7 9 8 7 8 9 9 8 9 11 11 15 16 15 19 17 15 20 18 17 20 22 26 27 26 26 25 25 25 22 23 23 22 24 25 25 25 25 25 24 23 22 21 20 19 19 19 18 18 18 17 17 16 14 14 13 12 11 10 9 8 7 6 6 5 5 4 3 3 3 4 5 6 8 8 8 8 9 8 7 7 8 9 8 8 9 9
10 5 2 2 5 8 9 2 4 5 7 8 8 8 8 7 7 6 8 11 12 15 17 17 19 20 18 19 17 17 22 25 26 26 25 25 24 24 23 21 23 24 23 24 25 24 24 24 24 23 22 21 21 19 18 18 18 18 17 16 16 15 14 12 12 11 10 9 8 8 7 5 4 5 5 4 3 2 2 3 4 5 6 7 8 8 9 10 8 9 9 9 9 8 10 11 10
5 4 3 4 6 8 6 3 5 5 8 8 8 8 8 8 6 7 10 12 15 17 19 18 17 22 20 16 16 18 22 24 25 26 24 24 24 23 23 22 22 22 22 24 25 25 25 25 24 23 22 21 20 19 18 18 18 17 16 15 14 14 13 12 11 10 9 8 8 7 7 5 4 6 6 4 2 2 2 2 3 5 6 7 7 8 9 10 8 10 10 9 9 10 10 10 10
2 3 2 5 7 7 3 3 5 6 8 7 7 8 8 8 7 9 11 12 16 17 17 15 14 19 16 13 17 20 22 22 23 25 24 24 25 24 24 22 21 21 22 24 25 25 25 25 24 22 22 21 20 19 18 17 17 16 15 14 14 14 13 12 11 11 10 9 8 8 7 6 5 6 5 4 2 1 1 2 3 5 6 7 8 8 9 9 8 9 10 9 9 10 10 10 10
2 3 3 5 7 9 6 2 4 6 8 6 7 9 9 8 7 9 11 12 15 15 14 18 17 15 13 15 19 21 22 21 23 23 24 23 23 23 22 23 22 22 22 22 24 24 24 23 22 22 22 20 19 18 17 16 16 15 14 13 13 13 12 12 11 11 10 9 9 8 7 7 6 5 4 3 2 1 0 2 3 5 7 8 9 10 10 9 8 8 9 9 9 9 10 10 10
4 1 3 4 6 11 6 2 3 5 6 8 7 8 10 10 8 9 10 11 15 16 16 21 20 14 15 17 17 21 22 23 24 23 25 24 23 23 21 24 25 23 21 21 23 22 22 22 21 22 21 19 18 17 16 15 14 13 13 13 13 13 12 11 11 11 10 9 9 8 7 6 5 4 2 2 1 1 2 3 5 6 8 9 10 11 10 9 9 8 8 8 8 9 10 10 10
5 3 4 5 8 10 2 2 3 6 7 8 8 6 8 11 11 9 8 11 17 21 20 20 19 12 14 16 16 24 25 24 24 23 25 25 25 25 21 25 25 23 22 21 22 21 21 21 21 21 20 19 17 16 15 14 13 13 13 13 13 12 12 11 11 10 10 9 8 7 7 6 4 3 2 1 1 2 3 4 5 7 8 9 10 11 10 9 9 8 8 8 7 8 10 11 10
8 3 2 3 9 9 1 3 4 5 7 8 7 6 8 10 13 11 9 14 19 23 19 17 16 13 17 19 21 28 28 26 25 23 25 24 24 25 23 24 23 22 22 21 21 20 20 20 20 21 20 18 17 16 15 14 13 13 13 13 12 12 11 11 11 10 9 9 8 7 6 5 4 3 2 2 2 3 4 5 6 8 9 9 10 10 9 8 9 8 8 8 8 8 9 10 10
8 4 2 4 9 8 1 1 5 4 8 10 9 9 10 8 11 12 12 16 18 20 18 14 13 15 20 22 25 30 28 27 26 25 25 24 25 23 23 24 23 23 22 21 20 20 20 19 19 20 19 17 16 15 15 14 13 12 12 13 12 11 11 10 10 9 8 8 7 6 5 4 3 3 2 2 3 3 4 6 7 8 9 9 9 8 7 7 7 7 8 8 8 8 8 8 8
8 2 5 5 8 5 3 2 2 5 7 8 11 11 11 8 10 11 12 15 16 18 15 13 13 17 22 25 29 30 28 28 26 26 25 25 25 23 23 22 22 22 22 22 21 20 21 19 20 20 19 18 16 15 15 14 13 12 12 12 12 11 11 10 9 8 8 7 6 5 4 4 3 2 2 3 3 4 4 5 6 7 8 8 8 7 6 5 5 5 6 8 7 6 6 6 6
9 4 4 5 7 7 2 4 1 3 7 8 10 11 11 10 11 11 12 14 15 15 14 15 18 19 24 28 29 29 29 27 26 26 24 24 24 23 23 21 20 21 21 21 21 21 21 20 20 20 19 18 16 14 14 13 13 13 12 12 11 11 11 9 9 8 7 7 6 5 5 4 3 3 3 3 4 5 4 5 6 6 7 7 7 7 6 4 3 4 5 6 5 3 3 4 6
13 8 3 6 9 10 8 2 4 4 7 8 8 11 12 10 11 12 12 14 12 13 13 15 21 23 27 30 29 29 29 26 26 25 23 22 22 22 22 22 22 21 21 20 20 21 21 21 19 20 19 17 16 14 13 13 13 12 12 11 11 11 10 9 9 7 7 6 6 6 5 4 3 3 3 4 5 4 4 5 6 7 7 6 5 6 6 4 3 4 5 5 4 4 5 5 4
12 10 5 7 8 8 10 5 5 7 7 7 7 8 11 10 10 11 14 12 9 13 16 16 23 27 28 30 31 30 29 27 26 24 23 22 21 21 20 21 21 21 21 20 21 21 20 20 19 19 18 17 16 14 12 12 13 12 11 11 10 11 11 9 9 8 7 6 5 5 5 4 3 4 3 3 4 3 5 5 6 7 7 5 4 3 3 3 4 5 5 5 5 5 7 6 4
9 10 8 5 6 10 11 6 6 8 7 8 7 6 9 11 8 9 14 8 7 14 18 20 24 28 29 31 32 30 30 28 26 25 23 23 22 21 20 21 20 20 21 20 21 22 20 20 20 19 18 17 16 15 14 13 13 12 11 11 11 10 10 9 9 8 7 6 6 6 5 4 2 4 3 3 4 3 5 6 6 6 7 7 5 3 1 1 2 4 5 5 4 4 4 5 6
8 9 10 7 4 14 17 6 7 8 9 9 7 6 9 10 7 9 11 7 10 18 18 22 25 28 30 30 30 30 30 28 27 26 24 23 23 21 21 21 21 21 21 20 20 21 21 21 20 19 18 19 16 15 14 13 13 12 10 10 10 10 9 8 8 8 7 7 7 7 6 5 3 3 3 4 4 3 4 6 7 6 7 7 6 5 4 4 3 3 3 3 3 3 4 6 7
13 9 13 14 13 20 21 8 9 9 10 10 8 7 9 9 7 10 9 3 11 19 19 22 25 27 29 28 29 29 30 28 27 26 24 24 22 22 22 21 21 21 20 20 19 20 21 21 20 20 19 19 18 15 14 14 14 12 10 9 9 10 9 8 9 9 7 7 7 8 7 7 4 3 5 6 3 4 5 7 7 5 8 7 5 5 4 5 4 3 4 3 3 4 4 6 6
15 11 12 13 13 18 16 10 10 11 9 10 11 9 9 9 8 10 10 7 10 18 21 23 25 27 28 28 29 29 29 28 26 26 24 23 22 21 21 21 21 20 20 20 20 20 21 20 21 21 19 18 18 16 15 14 15 13 11 11 11 11 10 9 9 9 8 7 7 7 8 8 5 3 8 8 5 5 6 9 7 5 8 8 5 5 4 5 4 4 5 3 4 5 6 6 6
10 10 10 8 9 12 12 14 12 14 12 12 12 11 10 9 9 9 12 13 11 18 22 23 25 26 26 26 28 28 29 28 27 26 24 23 23 22 21 21 21 21 21 20 20 21 21 21 20 19 19 18 18 17 15 14 14 15 14 13 12 12 12 10 8 7 7 7 7 8 9 9 8 6 9 9 7 8 8 9 7 4 6 7 6 6 5 7 7 7 5 4 4 6 6 6 7
13 13 11 10 12 13 13 16 11 11 13 13 12 11 12 11 9 8 14 16 12 20 23 23 25 26 26 26 27 28 28 27 27 26 24 24 24 23 22 22 21 21 21 20 19 20 21 21 19 19 18 18 19 18 15 13 13 15 14 13 13 13 13 12 10 9 8 8 9 11 10 9 9 9 10 9 8 9 9 8 6 5 5 7 7 7 6 6 7 8 7 6 5 5 5 6 8
16 14 11 11 12 13 16 17 11 8 10 15 14 11 12 12 9 7 15 17 15 21 23 24 24 25 26 26 27 28 27 27 26 27 26 25 26 24 23 23 22 21 22 21 19 19 20 20 20 20 19 18 19 17 15 15 14 16 15 14 13 12 12 13 12 10 9 11 13 14 12 10 9 10 10 9 9 9 8 6 6 6 6 8 7 7 7 6 7 8 8 7 6 5 5 7 8
18 15 10 11 12 13 16 16 9 7 9 16 15 10 11 11 9 10 17 16 17 21 22 24 24 24 26 25 27 27 27 27 27 27 27 26 25 25 24 23 22 22 22 22 20 20 20 20 20 21 20 20 20 18 16 16 16 16 16 15 12 11 12 12 11 10 11 13 14 13 13 11 9 9 9 9 10 9 7 7 6 5 6 8 7 6 7 7 8 7 7 7 5 5 6 5 5
16 16 9 8 11 11 13 14 9 9 11 17 15 8 9 11 9 13 18 16 18 21 21 23 23 24 25 24 26 27 26 28 27 27 27 27 26 25 24 23 23 22 22 22 22 21 21 21 20 20 21 21 21 20 17 17 18 16 15 14 12 12 12 10 11 11 11 12 12 11 12 12 11 10 9 10 10 9 7 7 7 7 8 9 8 7 8 9 8 6 5 5 5 5 4 4 5
11 13 9 7 8 7 11 12 10 10 12 17 15 6 7 12 12 15 19 18 19 21 21 22 22 24 24 24 25 26 26 27 27 27 27 27 26 26 25 24 24 22 22 23 24 23 22 22 21 20 21 21 22 22 20 17 18 17 15 13 12 13 13 11 10 10 10 11 11 10 10 10 10 9 10 10 9 9 7 5 5 8 10 11 9 9 9 10 10 7 4 4 4 3 2 4 5
9 11 9 8 8 6 8 10 11 10 11 16 14 6 6 9 11 17 20 18 19 20 21 22 22 24 24 25 25 25 26 26 26 26 27 27 26 26 26 25 25 24 23 23 24 25 23 23 23 21 21 22 22 23 23 20 18 17 15 13 13 13 13 12 11 10 10 9 9 11 9 9 9 9 10 9 9 8 7 5 3 6 12 12 10 9 9 10 10 7 5 4 3 3 6 7 4
9 9 9 10 11 7 6 10 14 11 10 13 13 7 6 5 10 18 21 18 20 20 21 22 22 24 24 24 25 24 25 25 26 27 27 28 27 27 27 27 27 26 24 23 25 26 25 24 24 22 20 23 23 22 24 23 20 19 17 15 13 14 13 12 11 12 11 9 10 12 10 9 8 9 9 9 9 8 6 4 3 7 13 12 10 9 9 11 10 7 6 5 4 8 11 8 4
8 9 9 10 12 8 6 8 13 14 11 12 14 10 7 7 12 18 23 20 21 20 21 23 22 23 24 24 25 25 26 27 28 29 29 30 29 28 28 28 28 28 26 24 25 27 26 24 24 24 21 22 24 23 24 24 21 19 18 16 15 15 14 12 12 12 10 11 13 13 12 10 9 8 8 8 8 7 7 5 4 9 14 12 9 8 10 10 7 6 6 5 8 12 10 6 5
9 10 9 9 12 10 9 8 10 15 13 12 14 10 7 8 8 13 22 21 21 20 21 23 22 23 24 24 25 25 26 28 29 30 30 30 29 28 27 28 28 28 27 26 25 26 27 26 25 26 24 22 23 24 23 23 23 21 19 17 17 18 16 14 14 12 11 12 12 11 12 12 9 7 7 8 8 7 7 7 6 10 14 11 8 8 8 6 4 5 6 7 11 10 6 5 3
15 12 11 10 11 9 9 10 11 14 14 11 13 11 8 9 7 10 19 20 20 20 21 22 22 23 24 24 25 26 27 28 29 29 29 29 29 29 28 28 28 28 28 28 27 26 28 28 27 27 26 23 22 23 23 23 23 22 21 19 18 20 19 17 17 14 13 13 12 12 13 12 10 9 9 10 10 8 7 8 10 12 13 12 10 9 6 4 4 6 7 9 10 6 4 3 3
19 14 12 14 12 7 8 14 16 15 13 11 13 13 11 12 10 12 16 19 19 20 20 21 23 23 24 25 24 26 27 27 28 28 29 29 29 29 28 28 28 28 29 29 29 29 29 29 29 28 28 27 24 23 23 24 24 23 22 20 19 19 18 18 17 15 14 13 12 13 14 14 12 11 11 11 11 10 8 10 12 13 12 11 9 7 4 5 6 6 8 8 6 5 4 3 4
20 15 13 14 12 8 10 14 17 17 12 11 14 15 13 15 14 14 15 16 17 19 20 20 23 24 24 26 26 26 26 25 27 28 29 30 29 29 29 29 29 30 31 31 31 31 30 29 29 30 29 29 27 23 22 23 24 23 22 21 19 16 16 17 16 15 14 13 12 14 14 14 12 10 11 11 11 10 10 11 12 12 12 8 5 4 4 5 4 4 5 4 2 3 4 2 2
18 14 13 12 9 8 11 12 15 18 10 10 16 14 12 16 16 14 16 16 16 20 21 21 23 24 25 26 26 26 26 26 27 29 30 30 30 30 30 30 30 31 31 31 31 31 31 30 30 30 30 31 30 26 24 22 22 23 21 19 17 15 16 15 12 13 12 11 12 14 16 13 11 10 11 10 10 10 10 10 10 10 7 3 3 4 3 3 4 4 4 2 1 2 2 2 4
15 13 12 11 11 10 9 8 13 18 10 9 13 12 9 11 13 12 14 16 17 20 22 22 23 24 25 26 26 26 27 28 28 29 30 31 31 31 32 31 31 31 31 32 33 33 33 33 33 32 30 31 31 30 27 24 21 21 21 19 16 14 15 12 9 10 11 12 13 15 14 11 11 11 10 10 9 9 9 7 6 5 3 3 4 1 1 3 3 3 2 1 2 1 1 1 1
16 17 14 12 13 14 10 8 9 15 13 10 9 8 7 9 12 12 12 16 17 18 19 20 22 25 25 26 27 27 28 28 29 29 30 32 33 33 33 33 32 32 33 34 35 35 36 35 34 32 30 30 31 32 30 27 23 21 21 20 17 15 15 12 12 14 15 15 14 13 11 9 10 10 10 10 8 7 7 6 5 4 4 4 3 2 3 4 3 1 2 3 2 1 2 2 1
15 19 19 18 17 16 13 11 10 10 10 10 9 8 7 9 13 14 14 14 14 15 17 19 21 23 24 25 27 28 28 29 30 30 31 33 34 35 35 35 33 32 34 35 35 35 35 35 34 33 32 31 31 31 31 30 27 23 22 22 21 19 17 17 17 16 16 14 11 11 10 9 9 9 10 10 8 7 7 6 5 4 4 4 4 5 4 2 1 2 1 3 1 2 3 5 2
12 16 20 23 22 19 15 14 12 9 8 10 10 9 6 8 13 14 15 15 14 14 15 18 21 22 23 24 25 27 28 29 30 31 32 34 35 35 36 37 36 34 34 34 33 33 33 33 34 34 33 32 31 31 32 31 30 27 25 23 22 21 20 18 16 14 14 11 8 9 11 9 8 8 9 9 9 8 7 7 7 6 4 1 3 2 3 2 1 4 4 3 4 4 3 5 3
11 15 20 22 22 23 19 15 12 8 9 11 13 12 8 7 11 13 15 13 13 16 16 17 20 23 24 24 25 26 28 29 30 31 32 34 35 37 37 37 37 34 32 33 33 34 34 33 34 34 34 33 33 32 31 31 30 29 27 24 21 20 20 16 13 13 13 10 9 12 12 9 7 9 9 10 10 9 9 9 8 8 5 3 2 3 4 4 3 4 5 4 4 3 5 6 5
14 17 19 19 20 21 20 14 11 10 10 9 11 12 8 8 9 11 14 13 12 17 18 17 18 21 24 25 25 26 28 30 30 30 32 33 35 36 36 36 36 33 32 33 34 34 34 34 33 34 34 34 34 32 32 31 29 29 29 26 22 20 19 15 12 12 10 11 15 16 13 8 9 10 10 10 10 10 10 9 8 8 6 5 2 3 2 5 4 4 5 3 1 0 4 7 7
16 19 19 17 17 18 17 14 11 11 9 9 12 13 8 8 8 10 11 13 14 16 14 13 17 22 24 26 27 26 26 29 30 30 31 32 34 35 34 34 34 34 33 34 34 34 34 35 34 34 35 35 34 33 32 31 30 29 29 28 25 22 21 17 13 12 12 15 17 15 12 10 10 11 11 11 10 10 10 7 4 3 4 4 4 6 6 6 6 7 4 3 4 4 5 5 7
18 19 17 15 15 14 14 12 11 10 9 11 14 14 11 9 9 10 11 12 14 15 13 14 20 26 27 27 27 26 25 26 28 30 30 31 32 33 34 34 34 35 35 34 35 35 35 36 36 36 36 36 35 34 33 31 30 30 29 28 26 24 22 19 17 15 15 17 16 13 13 11 10 10 11 11 11 12 11 6 6 4 7 5 6 12 11 5 5 7 4 6 8 8 5 2 4
18 15 13 12 11 11 11 10 11 10 9 12 15 17 16 11 9 10 13 15 17 16 16 20 24 27 28 28 28 28 27 26 26 27 29 29 32 34 36 35 36 37 37 36 36 36 36 37 37 37 37 37 36 35 34 32 31 31 30 29 27 24 23 21 21 19 18 18 17 15 14 12 12 11 10 10 11 12 10 8 12 14 13 9 6 9 9 7 6 4 5 6 6 7 6 6 6
17 15 12 11 9 8 9 9 8 10 10 12 17 19 16 12 11 13 15 17 19 18 17 20 22 26 28 28 29 30 31 30 29 30 31 32 34 37 38 37 38 40 41 40 37 37 37 38 38 38 38 38 37 35 34 33 33 32 30 29 27 25 24 23 22 20 20 20 18 17 15 15 16 15 14 13 11 11 10 11 15 17 17 14 10 9 11 12 13 8 7 7 5 4 5 7 8
17 16 12 11 10 9 10 9 9 11 11 13 18 17 13 11 11 15 18 18 18 20 23 24 23 27 30 30 32 32 33 33 32 33 36 36 37 40 40 40 41 43 44 42 40 38 38 39 39 39 39 39 38 36 35 34 33 32 31 30 29 26 25 24 22 20 22 22 19 18 18 17 17 17 18 16 11 11 13 15 17 16 15 14 12 13 14 13 15 15 10 7 7 4 2 5 6
16 14 12 12 11 9 9 9 9 10 9 12 17 14 10 9 8 14 19 20 20 22 25 26 23 25 29 31 32 33 33 32 30 31 36 40 42 43 44 43 42 44 45 43 42 41 40 40 40 40 40 39 38 38 37 35 33 32 31 31 30 28 26 25 23 21 23 23 20 20 19 18 18 18 18 17 15 16 17 19 19 15 12 11 10 12 13 11 13 16 13 10 11 8 5 6 6
12 12 12 14 13 10 9 10 11 11 9 10 12 9 7 9 8 9 14 17 20 21 21 23 22 23 26 29 31 33 34 34 32 32 37 41 44 44 44 45 43 44 46 45 43 43 42 41 41 41 40 40 40 39 38 36 34 33 32 31 30 29 28 26 24 24 24 22 21 21 20 19 19 20 20 19 20 22 23 23 21 15 11 11 10 10 12 12 11 13 14 13 14 13 8 7 8
9 12 15 15 16 15 10 11 13 13 11 9 8 9 9 10 9 10 12 14 16 17 18 20 22 27 28 29 31 35 36 35 35 36 39 42 42 41 42 44 43 44 47 47 46 45 44 42 42 41 40 40 40 40 38 36 35 35 34 32 30 30 30 28 27 27 26 23 22 22 23 23 22 22 23 22 23 25 24 23 20 16 15 13 12 10 11 13 12 11 11 11 13 14 11 9 10
10 11 15 15 17 16 10 8 10 12 11 8 11 14 12 9 8 11 16 17 15 16 17 18 19 25 28 28 30 39 39 35 36 37 40 42 41 42 43 44 43 42 45 47 47 45 45 43 42 41 41 41 40 39 39 38 37 36 35 34 32 31 30 29 29 29 28 26 25 24 26 27 26 25 25 25 26 25 23 21 19 18 17 15 13 12 12 13 14 12 11 10 11 12 13 13 12
20 13 12 12 13 13 9 7 10 12 11 8 13 15 12 11 9 10 16 17 16 17 16 17 17 19 25 27 31 42 40 37 38 39 40 41 40 42 43 43 42 41 43 46 46 46 45 43 42 41 41 41 40 39 39 38 38 37 36 35 34 32 31 30 31 31 31 30 28 28 29 29 28 28 28 28 27 25 22 22 21 21 19 16 15 14 13 13 15 15 13 11 11 12 13 14 13
22 17 13 11 11 11 10 9 10 10 9 9 13 13 10 10 10 12 15 15 18 17 12 14 16 16 22 23 30 46 44 39 41 40 40 41 39 39 40 40 40 41 41 43 43 44 43 42 42 41 40 40 40 39 39 39 38 37 36 35 35 34 33 32 33 33 34 34 32 31 32 31 30 31 31 30 28 25 25 24 23 22 20 18 17 16 15 14 14 14 13 12 13 13 12 12 12
16 15 15 13 10 9 10 11 10 10 9 9 11 11 9 8 9 14 14 11 13 13 8 9 14 19 24 21 23 42 46 41 40 36 35 36 36 36 36 36 36 36 37 39 40 41 42 41 41 40 39 40 40 39 39 40 38 37 36 35 35 35 34 34 34 35 36 36 35 35 34 32 33 33 33 31 28 27 28 26 24 22 21 19 19 18 18 16 15 14 12 12 13 13 12 10 11
14 14 15 15 12 10 11 11 11 11 10 9 9 9 8 8 8 10 11 9 10 13 13 11 14 23 26 24 25 35 43 43 40 34 31 31 32 32 31 33 35 35 36 38 39 40 41 41 40 39 39 40 40 39 40 40 39 37 36 36 36 36 36 36 36 37 38 38 38 38 36 34 34 36 34 31 30 30 30 28 26 23 22 20 20 20 19 18 17 15 14 12 13 14 14 14 14
Wind_Direction
173 116 136 141 147 194 208 241 252 208 235 272 304 64 101 88 91 113 105 110 89 72 68 74 76 75 95 96 88 70 48 51 69 81 108 130 134 123 125 127 127 130 132 137 140 141 143 141 144 146 145 145 142 141 141 140 142 142 142 142 142 141 139 138 137 134 131 129 126 121 116 113 109 105 101 98 96 92 86 81 78 75 71 67 64 59 55 56 59 57 59 61 59 60 60 56 50
235 120 130 132 166 207 318 282 277 271 255 13 354 359 84 100 100 91 88 89 85 89 87 87 88 87 102 103 92 74 58 72 87 95 111 130 131 126 128 128 129 130 130 132 137 139 141 142 146 148 147 147 144 144 141 141 143 142 143 143 142 143 143 141 140 137 134 133 129 125 120 117 112 108 105 99 92 84 78 77 78 76 72 68 63 61 54 49 55 57 55 57 56 57 62 60 53
234 144 144 140 194 231 11 304 267 268 282 53 0 309 48 108 105 96 92 93 102 107 97 92 88 89 107 102 87 86 87 90 98 107 117 131 131 128 128 128 130 128 128 130 134 135 138 142 145 146 147 147 144 142 137 139 142 141 142 143 142 143 146 146 145 142 139 138 134 129 123 119 115 114 108 96 87 80 75 74 73 71 68 64 58 54 50 42 49 55 53 54 54 53 56 57 55
163 168 173 169 197 266 289 290 250 259 70 63 296 175 143 98 101 104 102 102 108 108 100 94 78 75 93 95 92 96 102 101 105 114 124 136 131 129 130 129 130 128 128 131 133 133 135 138 142 143 144 146 144 139 136 138 138 139 140 141 143 144 148 150 149 148 145 145 143 136 127 123 123 119 106 94 87 81 74 67 66 67 61 55 51 51 49 41 42 48 50 50 51 53 52 49 49
164 200 219 206 169 301 252 250 235 233 150 183 242 162 122 101 107 111 114 110 107 107 106 99 84 79 81 84 94 100 105 110 113 117 126 135 132 131 130 129 129 130 131 132 135 135 135 136 138 139 141 145 143 138 139 139 138 139 139 141 145 148 150 151 150 150 151 152 153 147 136 133 135 123 106 96 89 83 73 64 64 62 52 45 43 47 46 35 29 32 38 42 47 53 52 50 48
180 245 241 228 247 285 275 267 251 203 147 155 226 211 117 106 116 116 117 111 108 111 105 100 103 97 82 75 79 98 115 117 117 123 129 132 136 137 133 130 127 131 132 132 137 137 137 138 137 138 139 142 141 140 141 140 140 141 142 144 146 149 150 151 151 151 153 154 156 152 143 144 142 123 111 103 93 88 78 69 64 54 45 37 35 39 39 31 23 26 32 35 43 50 50 52 50
206 242 236 232 257 263 262 256 258 107 134 142 179 188 118 114 123 118 119 113 111 107 104 108 112 103 92 87 78 90 111 117 121 128 132 132 135 137 135 132 127 130 132 134 140 140 139 139 138 139 139 138 140 142 143 144 145 146 147 147 149 150 149 149 149 149 151 154 155 151 147 151 144 126 117 107 99 92 80 71 55 45 39 33 35 36 33 33 33 32 33 34 37 41 42 43 46
223 234 224 242 259 237 257 261 267 74 125 133 145 143 113 126 129 125 130 119 116 111 112 115 109 96 94 99 85 90 104 115 123 127 131 131 132 132 133 134 129 130 134 140 144 144 141 141 140 141 139 138 142 142 144 146 147 148 148 150 152 151 149 148 147 147 150 155 156 153 151 158 149 130 123 115 114 95 76 69 49 37 35 31 34 32 26 29 32 26 27 36 34 33 35 33 37
241 244 225 291 283 265 264 264 100 88 106 111 115 114 114 131 127 130 128 113 119 122 121 118 106 100 102 98 93 99 106 117 123 125 130 133 133 129 131 136 133 134 140 144 146 146 144 144 144 143 141 141 143 144 145 146 146 147 147 151 154 154 151 148 148 151 155 158 159 157 157 166 156 135 136 130 126 97 72 65 43 23 30 30 23 22 21 24 25 21 20 34 37 33 34 32 32
263 261 250 289 283 271 263 240 101 101 104 110 116 122 126 134 130 125 119 116 125 119 110 109 105 107 110 100 102 113 117 125 126 128 133 136 135 129 132 138 136 138 142 145 146 147 147 147 147 147 143 143 146 146 146 145 145 145 149 153 154 153 150 149 151 157 159 160 162 162 164 175 168 145 148 145 136 103 70 55 33 10 24 29 16 10 15 20 22 22 21 32 40 37 33 30 30
274 266 260 285 268 262 255 131 104 102 105 111 115 125 131 139 139 120 118 122 121 111 107 107 107 110 107 97 108 124 127 131 132 133 137 137 136 135 136 138 139 141 142 146 147 148 150 150 150 150 147 147 148 147 147 145 146 147 151 154 150 150 153 156 158 160 160 161 165 165 167 179 173 153 153 155 152 120 77 29 17 8 18 20 11 7 11 15 16 21 26 38 38 35 34 32 33
262 293 304 289 280 285 283 102 106 115 118 122 124 125 124 136 144 129 123 126 123 116 116 119 121 117 107 105 120 132 134 134 136 137 141 140 137 138 138 139 140 139 143 149 149 149 151 152 152 152 151 150 150 148 148 147 148 150 152 151 148 150 157 160 161 162 161 162 167 168 168 169 162 158 162 161 175 174 108 358 356 5 10 11 10 10 12 13 12 20 29 38 36 37 41 36 37
261 316 331 287 287 292 281 92 107 138 131 116 109 118 128 138 139 129 127 130 124 115 118 124 128 121 110 117 128 138 138 137 140 139 141 140 136 136 136 135 138 139 144 150 149 150 152 154 155 154 154 153 153 150 150 150 149 150 152 152 150 154 160 160 161 161 161 164 167 167 163 155 157 166 172 166 190 220 117 329 343 359 1 8 12 9 12 15 16 21 27 32 37 45 45 41 42
249 252 288 283 286 281 275 88 162 163 113 101 113 145 148 137 124 126 138 126 115 121 128 129 129 117 114 122 136 145 142 141 143 141 138 138 138 136 132 131 137 140 141 147 150 151 152 156 158 158 158 156 157 155 153 153 153 155 157 158 156 158 160 159 160 160 162 164 163 160 156 155 160 168 178 184 223 290 327 331 344 354 357 7 11 9 10 14 18 27 31 32 42 43 45 53 54
216 216 265 281 287 279 292 348 224 134 102 118 139 159 128 120 132 143 143 111 111 129 130 134 135 126 138 141 148 150 146 144 145 143 136 136 139 136 133 130 134 139 141 148 151 151 154 157 159 160 160 160 160 159 158 158 162 164 161 162 163 163 164 163 163 164 164 161 158 156 159 160 161 170 189 220 265 300 315 327 340 347 354 4 6 7 9 14 22 35 42 40 47 46 54 67 65
198 200 274 276 283 284 60 329 306 114 119 123 130 136 115 125 143 143 126 109 120 134 134 146 149 143 155 148 145 148 146 147 145 144 138 137 138 136 140 136 134 140 142 148 150 151 154 157 160 161 162 162 162 161 162 164 168 171 168 168 169 169 168 167 165 164 162 160 159 160 165 163 166 185 200 239 271 301 316 324 335 343 353 3 4 7 12 19 29 43 55 53 53 53 58 64 59
173 157 271 278 274 279 118 9 333 100 118 121 143 142 129 136 129 118 115 119 131 139 139 153 151 143 147 144 144 144 144 147 144 143 141 140 139 139 147 144 142 143 143 148 151 152 155 159 162 163 164 162 162 164 166 169 171 174 176 175 173 173 171 170 167 164 164 162 162 169 177 172 183 202 215 254 284 315 322 327 335 343 350 358 0 4 15 28 40 50 61 61 55 51 49 51 49
159 167 248 259 263 272 100 131 0 102 120 139 162 145 134 137 116 121 129 129 140 140 136 137 135 138 136 139 146 145 147 148 146 146 145 146 145 144 148 149 148 146 148 152 154 157 159 161 162 163 164 162 164 167 169 171 172 175 178 178 176 177 175 172 169 168 170 168 169 182 191 188 199 224 251 269 293 310 319 327 333 345 348 350 353 359 12 28 46 51 50 46 39 42 49 42 30
188 219 246 260 270 300 356 146 128 131 146 151 163 149 140 140 131 156 152 134 147 141 134 136 132 137 137 141 148 148 151 151 150 152 150 151 150 148 150 152 152 150 152 156 157 159 162 163 162 164 164 163 165 167 170 171 170 173 177 181 178 178 177 174 175 175 179 178 180 189 195 204 211 236 257 274 290 302 317 331 335 342 344 344 344 347 360 17 36 38 32 32 28 26 31 29 15
200 203 232 260 257 288 293 193 139 155 154 152 169 153 138 141 150 173 153 136 161 151 142 145 137 142 143 145 150 151 155 155 155 156 154 154 153 153 153 153 156 156 154 156 158 159 164 165 162 166 165 164 168 168 170 171 172 174 178 182 179 179 179 180 183 183 189 188 191 196 200 217 231 252 270 292 295 308 324 337 340 335 340 345 340 340 357 18 37 40 38 41 39 18 10 18 14
195 206 210 247 259 277 265 230 154 150 158 158 162 156 139 146 165 172 152 145 172 157 152 151 142 148 149 150 154 156 158 158 158 158 157 157 156 156 155 155 156 158 155 155 161 161 164 164 163 170 169 167 171 170 172 174 175 175 179 183 182 184 185 190 192 191 198 197 199 201 209 223 244 262 265 287 304 334 334 334 333 325 329 330 323 324 358 21 34 41 44 46 36 20 17 12 1
190 219 226 256 300 285 254 218 161 150 160 160 157 175 147 149 180 169 156 169 173 153 156 151 148 154 155 155 156 158 160 160 161 161 160 160 159 159 158 157 156 158 157 159 166 164 164 166 168 172 171 172 174 171 175 179 177 177 180 181 186 190 192 197 197 198 200 204 205 201 210 217 244 272 278 307 326 330 321 323 317 317 323 325 327 321 337 327 4 44 42 41 27 12 3 339 344
199 216 227 235 243 269 264 211 163 170 170 166 165 167 146 161 179 155 166 201 160 148 153 150 151 156 156 157 158 160 161 163 164 163 164 162 162 163 161 162 161 163 162 164 170 168 168 170 173 176 173 175 175 173 179 181 177 181 184 183 186 188 197 199 200 209 208 211 216 209 207 223 251 261 278 307 316 293 300 307 299 304 314 325 333 330 347 319 323 42 14 358 344 350 343 332 344
206 191 203 212 203 243 255 209 172 187 178 165 168 162 161 183 161 148 174 185 135 139 147 149 150 156 158 160 162 164 163 164 166 165 167 164 164 165 163 165 164 165 166 168 171 170 172 173 179 181 178 178 177 177 182 184 180 178 186 192 183 182 198 199 197 216 227 233 234 221 206 217 247 252 258 270 268 274 292 293 293 305 308 318 330 331 337 313 339 7 311 315 326 331 340 337 339
209 189 197 211 205 229 242 228 195 175 175 168 172 174 177 187 159 166 169 132 132 136 141 148 150 156 160 164 167 166 166 167 167 167 168 167 167 166 165 167 166 167 167 169 171 171 171 176 186 184 181 183 182 184 185 186 182 172 188 198 185 188 198 197 199 210 225 240 245 238 220 210 213 254 265 262 249 250 268 288 306 323 306 306 306 316 312 291 316 314 287 311 323 327 340 337 337
233 212 200 223 234 231 237 243 210 162 171 177 177 179 179 179 166 181 159 139 145 138 143 151 153 160 163 167 170 168 169 170 168 168 170 169 168 169 169 170 169 171 169 169 172 174 172 178 189 188 188 189 185 189 186 186 183 173 192 199 191 200 195 194 206 204 214 231 242 249 242 225 208 221 254 254 242 239 247 277 306 315 303 307 295 291 293 295 307 306 298 304 318 335 340 336 348
250 240 203 215 241 238 245 254 225 170 171 175 186 182 174 173 176 192 149 143 155 143 147 154 157 165 165 168 171 170 173 172 170 170 171 172 173 173 173 174 173 173 172 171 173 177 178 180 185 185 191 192 186 188 183 185 188 181 193 199 198 210 201 193 200 199 209 219 230 243 248 244 229 230 251 254 250 254 254 266 282 272 277 295 294 287 293 301 310 316 313 308 318 328 339 347 1
245 239 206 211 237 239 247 251 222 187 175 176 190 183 172 173 187 192 143 148 169 152 150 155 161 168 166 170 171 171 176 175 173 173 174 176 177 177 177 177 176 175 175 175 175 177 181 182 183 183 189 193 186 184 185 190 195 191 196 203 204 216 213 204 204 204 211 216 224 238 249 253 245 243 255 259 258 262 263 262 266 275 284 290 297 304 309 310 313 323 318 314 316 324 8 4 1
260 254 220 204 223 231 241 247 217 182 181 181 188 181 179 182 190 177 149 159 170 154 153 158 163 168 168 171 171 173 179 179 177 177 179 179 180 180 179 180 178 178 179 178 178 178 180 181 184 188 191 198 190 182 191 196 199 202 202 206 206 214 224 218 213 212 219 231 234 238 244 249 252 251 255 259 260 263 269 264 261 275 289 291 300 308 312 314 320 331 321 314 321 350 23 354 353
263 268 259 220 221 217 224 240 217 187 182 179 187 189 187 189 188 169 154 166 169 157 159 162 164 167 169 174 172 175 181 180 180 180 182 182 182 182 181 183 181 181 181 181 182 180 181 181 185 190 193 204 202 187 193 202 204 208 207 207 206 212 225 222 215 216 221 237 248 247 240 244 255 260 260 259 260 266 269 270 282 292 286 286 300 311 313 314 316 320 316 321 345 13 23 338 1
246 252 257 247 245 221 206 221 210 189 172 176 193 201 193 189 178 164 158 169 173 164 163 165 167 167 170 174 173 179 183 184 184 182 183 183 183 184 183 184 183 183 184 184 186 183 183 184 185 190 194 205 209 196 192 201 205 207 208 208 207 214 222 219 216 222 231 239 250 253 246 247 255 258 258 259 260 264 263 264 293 303 294 293 306 315 315 316 311 302 304 327 342 9 2 353 10
238 237 233 224 240 235 202 206 206 191 164 181 204 206 190 196 182 170 164 173 180 172 168 169 171 171 172 174 175 181 185 186 186 184 185 185 185 187 186 186 186 186 186 188 190 187 185 188 187 190 197 203 208 205 199 202 207 205 206 206 209 220 226 223 215 216 232 246 251 254 258 256 255 258 258 256 253 256 259 261 279 284 284 295 310 311 314 317 310 304 312 318 308 321 335 347 348
222 228 237 225 219 211 197 199 197 190 172 186 213 215 172 211 226 185 167 176 185 178 173 176 178 175 174 175 177 182 185 187 188 187 188 188 188 188 188 189 189 188 189 192 193 191 188 191 192 190 199 206 208 209 207 208 211 209 206 204 208 219 225 226 225 223 223 228 238 248 258 255 253 257 253 248 247 249 259 273 293 272 275 291 302 304 317 315 303 299 306 307 312 325 330 329 293
221 217 233 243 235 212 189 195 189 189 191 188 205 221 170 196 232 186 169 181 186 183 179 180 183 178 176 178 179 182 184 187 191 190 189 190 190 190 191 191 193 191 190 192 196 196 192 192 197 194 196 209 211 210 210 211 214 214 209 206 208 215 219 219 225 233 225 220 229 241 253 251 251 254 249 249 249 252 259 256 251 261 272 285 288 301 315 308 301 294 287 298 321 326 328 319 285
231 217 215 238 244 225 191 186 186 188 198 193 195 214 168 173 231 182 173 185 186 187 184 182 186 182 178 181 183 183 185 189 193 193 191 191 191 191 193 193 194 194 192 193 196 200 199 196 200 200 196 203 212 212 210 211 214 215 213 210 213 220 223 222 225 226 224 228 230 235 248 252 254 257 257 259 258 261 264 259 248 254 272 284 288 306 309 299 304 291 278 302 322 333 343 337 326
240 232 218 224 232 225 199 191 192 190 201 199 193 209 164 153 230 204 180 188 191 190 187 185 188 185 181 185 188 186 186 191 193 193 193 192 192 192 192 193 193 194 195 196 197 201 205 202 202 204 198 196 209 215 210 210 213 214 215 215 220 229 233 231 231 226 224 233 232 232 245 252 254 253 255 259 260 261 258 261 258 255 270 284 291 306 311 291 292 293 299 315 332 358 29 6 359
245 247 236 235 234 225 213 209 199 191 201 200 199 211 170 152 210 212 187 194 193 192 192 188 188 187 186 188 192 191 189 192 191 192 194 193 194 194 192 193 193 194 197 199 200 203 206 205 204 207 204 196 201 212 212 209 211 213 215 217 221 231 236 234 234 230 226 230 237 245 253 256 253 247 252 256 256 258 252 258 265 267 278 287 288 293 280 263 280 302 317 330 359 43 69 27 345
240 249 251 247 240 219 228 226 195 184 198 198 200 212 180 166 200 201 192 203 199 195 196 192 192 191 189 190 192 193 191 192 190 190 193 193 194 194 194 195 194 195 198 201 202 204 206 206 205 207 209 206 200 204 211 209 210 213 214 217 217 220 232 237 233 230 229 228 236 250 255 256 253 245 250 252 252 257 255 260 271 276 279 282 276 258 242 259 276 295 317 344 39 83 84 96 240
237 244 253 256 248 222 233 235 185 174 199 200 193 212 196 177 193 199 199 204 201 204 202 196 196 191 189 191 192 193 192 191 190 189 192 194 194 194 194 196 196 197 199 200 202 204 205 204 204 204 208 212 207 202 209 211 210 212 214 216 215 213 226 237 233 230 234 231 228 238 248 252 249 244 246 250 250 250 252 261 273 273 268 255 216 223 231 245 271 297 341 31 132 133 96 170 186
238 240 245 252 256 244 231 225 185 172 194 216 191 203 213 185 183 201 219 212 199 206 210 203 199 194 192 194 193 194 193 191 191 190 190 193 194 194 195 197 198 198 198 200 201 203 205 205 206 206 206 212 212 208 211 213 211 212 214 214 210 213 226 232 230 229 229 225 221 231 244 245 241 240 243 250 249 242 249 254 254 247 218 188 198 217 126 187 257 319 8 198 202 114 121 201 191
233 237 241 244 250 251 238 231 207 175 184 219 200 195 219 208 190 189 222 228 205 200 212 212 205 200 199 196 194 195 196 194 193 192 191 193 194 195 197 198 198 199 199 201 201 203 206 207 208 207 206 209 212 211 212 214 212 210 213 211 203 210 222 216 208 218 222 222 223 231 241 238 234 234 238 246 242 230 233 228 224 201 177 193 186 121 129 187 236 284 280 254 228 251 165 144 15
227 231 239 245 248 248 235 228 226 193 192 210 206 216 218 214 215 198 194 212 210 200 209 218 213 205 202 198 194 195 198 197 195 195 193 194 195 196 198 199 199 199 201 202 202 203 205 208 209 207 205 207 209 212 212 213 213 211 211 210 203 203 210 209 207 214 221 224 226 230 238 238 232 231 232 234 224 216 214 209 207 183 192 213 179 166 175 193 261 168 245 307 265 253 193 152 120
227 222 230 241 249 252 239 227 230 216 208 204 205 231 231 211 225 211 189 196 212 208 206 215 214 205 203 203 200 196 196 198 198 199 197 196 196 196 198 200 200 200 201 203 203 204 206 208 208 206 205 207 208 209 212 213 215 214 213 213 208 204 208 212 212 211 217 227 227 220 227 231 223 222 220 213 209 208 205 197 186 174 181 200 166 150 130 143 252 180 182 237 233 244 205 170 163
231 222 224 230 240 252 247 233 236 228 212 208 205 218 238 232 225 213 196 197 217 215 208 215 213 203 200 206 206 199 196 199 199 201 201 199 198 197 199 200 201 201 200 202 203 205 207 207 207 206 206 207 207 208 212 215 215 214 214 213 209 206 209 212 211 211 215 216 208 207 218 221 207 202 200 201 203 198 195 191 180 168 159 188 215 27 70 147 211 200 193 223 240 236 206 198 200
231 229 231 228 227 244 254 247 243 238 225 218 204 205 232 242 221 214 204 199 218 222 213 212 210 203 200 203 208 205 200 199 199 202 204 201 200 199 200 200 201 202 202 203 203 205 207 207 207 206 206 206 206 207 210 215 215 214 214 212 208 207 207 206 207 208 197 192 203 211 216 208 189 189 189 193 195 190 195 193 183 173 168 202 217 50 80 181 207 250 246 240 44 186 208 204 197
228 232 238 239 228 229 241 245 252 253 244 233 211 201 222 246 226 219 214 205 211 218 213 211 212 213 209 202 205 208 204 199 198 202 204 202 201 200 201 202 202 203 204 205 205 205 206 207 207 207 207 207 207 207 209 213 215 213 213 213 211 211 209 201 197 199 188 195 212 215 208 196 184 187 191 194 191 191 201 191 169 197 207 211 177 160 189 209 242 284 278 191 175 203 223 210 187
226 231 235 242 241 234 229 226 238 254 250 242 229 209 206 231 234 223 223 217 213 209 201 206 214 218 214 203 201 206 203 201 200 201 202 201 201 201 201 203 205 206 206 206 206 205 206 207 207 207 207 207 206 206 208 210 213 213 213 214 214 213 212 198 190 197 197 201 212 207 198 195 188 192 196 198 189 192 204 174 144 209 232 223 197 189 192 202 255 285 271 201 203 206 201 186 183
224 226 229 234 239 244 242 229 224 235 244 244 240 229 217 222 228 222 223 219 219 217 204 205 211 212 206 197 199 207 206 203 201 199 199 198 197 200 202 204 207 208 207 206 205 203 204 205 206 206 206 207 206 206 207 208 210 212 212 215 214 212 210 199 193 196 197 202 205 197 195 192 185 184 191 198 194 198 210 183 178 203 217 223 217 187 180 186 200 241 254 226 211 204 184 179 188
221 220 222 227 226 229 237 240 233 232 236 232 232 232 231 235 229 221 227 221 216 220 218 215 209 199 196 196 200 204 203 200 198 195 196 197 198 203 206 207 209 209 208 207 205 202 202 204 206 206 206 207 207 206 208 207 208 210 212 214 213 210 205 201 201 195 195 204 201 190 192 192 185 181 189 199 199 202 209 203 207 219 225 227 217 181 183 194 183 185 233 222 197 200 176 180 184
218 215 211 217 222 220 221 231 240 235 233 235 238 237 236 247 232 213 226 230 220 219 220 221 211 192 190 199 204 202 201 200 198 196 195 196 200 205 208 207 208 209 208 207 206 204 202 203 204 205 206 207 207 206 207 207 207 208 211 213 210 208 203 201 201 192 195 206 199 190 194 198 195 192 197 200 197 208 218 220 227 233 230 224 205 189 200 206 192 195 217 204 188 211 180 184 190
217 212 211 220 224 223 223 225 233 238 239 241 244 242 233 243 228 201 213 224 224 221 219 219 212 192 189 200 205 201 198 198 198 200 200 201 204 206 208 208 208 209 208 206 206 206 204 203 204 204 205 206 206 206 206 207 207 206 209 211 210 209 206 203 198 191 199 207 201 196 198 201 203 202 205 202 195 208 221 227 236 237 224 212 201 203 212 217 206 205 210 191 183 204 205 192 194
213 207 215 224 224 224 234 239 238 238 238 237 241 245 235 237 236 208 207 216 219 219 219 216 202 189 196 210 208 197 192 191 193 200 204 205 207 209 211 210 209 210 208 206 206 207 205 203 204 205 205 205 205 205 206 206 205 204 205 209 210 210 208 203 195 192 198 205 203 200 197 200 206 206 210 210 205 212 219 226 237 239 228 219 217 216 217 220 209 199 206 198 185 190 197 201 201
205 208 217 222 223 225 235 246 245 240 236 235 236 242 239 232 236 229 220 220 217 213 220 218 196 187 201 216 208 192 185 187 191 198 205 207 206 209 211 209 208 208 207 207 207 206 205 204 204 204 204 205 205 204 204 204 204 204 205 208 208 207 206 203 198 196 197 200 205 203 197 202 209 210 213 217 217 220 222 226 231 230 227 228 225 216 209 212 204 189 199 202 189 185 192 215 220
218 211 210 213 222 226 229 237 240 235 236 239 234 239 242 232 229 221 216 219 216 210 218 223 204 188 199 214 201 185 183 186 192 199 205 206 205 205 206 205 206 208 207 207 207 206 206 205 204 204 203 204 204 203 202 203 204 204 206 208 207 204 203 203 203 203 201 202 204 202 201 207 214 216 218 222 225 225 224 224 223 220 224 229 225 217 203 195 195 199 206 200 190 188 194 208 219
229 233 210 204 217 219 215 225 236 234 233 238 238 239 239 238 238 218 213 219 215 204 202 217 217 193 199 209 188 177 182 186 190 198 201 202 204 205 206 206 208 209 207 206 206 205 205 205 205 204 203 203 203 202 201 202 203 205 206 207 205 201 202 204 206 208 207 207 206 204 207 213 217 220 223 226 228 228 225 220 217 218 224 224 217 214 206 194 192 199 206 200 196 203 207 209 216
225 241 229 213 220 219 213 220 235 239 235 233 236 237 230 231 244 235 223 220 216 209 194 205 219 212 216 215 176 168 177 182 187 197 201 201 202 202 204 208 207 207 206 204 203 202 202 203 203 203 202 202 202 201 201 202 202 204 204 204 202 200 202 205 207 209 210 211 211 210 214 217 218 221 226 228 228 229 227 222 219 220 221 218 212 208 207 206 203 201 200 198 201 211 217 212 217
210 228 231 221 217 219 223 224 225 229 234 235 235 238 234 222 234 241 237 219 201 207 219 212 210 218 230 233 186 170 175 181 186 191 193 195 199 201 205 209 207 206 205 202 200 200 200 200 200 199 198 199 198 199 202 202 201 201 201 201 200 199 202 205 206 209 213 215 215 216 218 219 219 222 227 229 228 228 229 228 226 224 220 217 215 210 206 208 212 210 203 199 202 212 222 221 225
204 213 225 226 218 212 220 225 223 223 228 236 240 243 239 226 227 237 243 233 185 189 226 230 207 213 224 231 211 181 173 177 180 180 184 188 192 197 203 206 205 206 206 202 199 199 199 199 198 196 196 195 194 197 201 201 199 198 199 200 201 201 203 205 205 209 215 217 217 220 221 220 222 226 228 229 229 229 231 232 230 228 224 219 216 215 212 211 213 214 211 209 206 209 217 221 225